Location: Bon Acre
(42.6442°N, 73.5758°W)
Time: 17:29:02
(UTC+00:00)

Aureole 1 Rocket - Pass Details

Date: 14 December 2025
Orbit: 373 x 1167 km, 73.9° (Epoch: 22 January)

Event Time Altitude Azimuth Distance (km) Brightness Sun altitude
Rises 22:07:41 0° 186° (S) 2,755 6.8 -8.4°
Reaches altitude 10° 22:09:41 10° 182° (S) 1,967 6.0 -8.7°
Maximum altitude 22:14:01 57° 104° (ESE) 852 3.5 -9.4°
Drops below altitude 10° 22:19:33 10° 27° (NNE) 2,500 5.7 -10.4°
Enters shadow 22:21:24 - 25° (NNE) 3,209 6.3 -10.7°
